User: anonymous   Login
Location: Dackenheim
(49.5215°N, 8.1854°E)
Time: 07:47:39
(UTC+00:00)
Language:

SEEDS - Orbit

View from above orbital plane
View from above orbital plane
View from above satellite
View from above satellite

Ground track
Ground track

The orbit is defined by the following mean orbital elements,

1 32791U          26069.96811154 +.00000000 +00000-0 +82649-3 0 00005
2 32791  97.7518  63.4518 0001239 356.4439   3.6791 15.29149577    03
Epoch (UTC): 10 March 2026 23:14:04
Eccentricity: 0.0001239
inclination: 97.7518°
perigee height: 478 km
apogee height: 479 km
right ascension of ascending node: 63.4518°
argument of perigee: 356.4439°
revolutions per day: 15.29149577
mean anomaly at epoch: 3.6791°

The dashed part of the orbit path shows where the satellite is in the earth's shadow,  

DLR